logo tempoitalia

Diretta Meteo Verona-Villafranca, Italiavenerdì 23 luglio ore 21:50

Mappa
Sereno 27 °C Nuvoloso 24 Ore: T.min 18 T.max 31
Ponente Est Km/h 7.4 Punto di rugiada: 19 °C Umidità: 61% Visibilità: 10 Km
Il sole sorge alle: 05:49 Il sole tramonta alle: 20:56
23 Luglio 2021 21:50 tempo osservato: Nuvoloso Nuvoloso 27 61 1013 vento: Nord E 7.4
23 Luglio 2021 21:20 tempo osservato: Nuvoloso Nuvoloso 28 54 1012 vento: Nord N 5.5
23 Luglio 2021 20:50 tempo osservato: Sereno Sereno 28 54 1012 vento: Nord N 5.5
23 Luglio 2021 20:20 tempo osservato: Sereno Sereno 28 58 1012 vento: Nord N 5.5
23 Luglio 2021 19:50 tempo osservato: Sereno Sereno 29 51 1012 vento: Nord N 5.5
23 Luglio 2021 19:20 tempo osservato: Sereno Sereno 30 48 1012 vento: Nord N 5.5
23 Luglio 2021 18:50 tempo osservato: Sereno Sereno 31 45 1012 vento: Nord S/SE 7.4
23 Luglio 2021 18:20 tempo osservato: Sereno Sereno 31 45 1012 vento: Nord N 3.7
23 Luglio 2021 17:50 tempo osservato: Sereno Sereno 31 45 1013 vento: Nord N 3.7
23 Luglio 2021 17:20 tempo osservato: Sereno Sereno 31 45 1013 vento: Nord N 5.5
23 Luglio 2021 16:50 tempo osservato: Sereno Sereno 30 48 1013 vento: Nord N 3.7
23 Luglio 2021 16:20 tempo osservato: Sereno Sereno 30 48 1013 vento: Nord N 5.5
23 Luglio 2021 15:50 tempo osservato: Sereno Sereno 30 48 1013 vento: Nord N 5.5
23 Luglio 2021 15:20 tempo osservato: Sereno Sereno 30 45 1014 vento: Nord N 7.4
23 Luglio 2021 14:20 tempo osservato: Sereno Sereno 29 45 1014 vento: Nord N 5.5
23 Luglio 2021 13:50 tempo osservato: Sereno Sereno 29 51 1014 vento: Nord N 3.7
23 Luglio 2021 13:20 tempo osservato: Sereno Sereno 29 45 1015 vento: Nord N 7.4
23 Luglio 2021 12:50 tempo osservato: Sereno Sereno 28 48 1015 vento: Nord N 7.4
23 Luglio 2021 12:20 tempo osservato: Sereno Sereno 28 51 1015 vento: Nord S/SO 7.4
23 Luglio 2021 11:50 tempo osservato: Sereno Sereno 27 50 1016 vento: Nord SE 7.4
23 Luglio 2021 11:20 tempo osservato: Sereno Sereno 27 47 1016 vento: Nord N 5.5
23 Luglio 2021 10:50 tempo osservato: Sereno Sereno 26 57 1016 vento: Nord N 3.7
23 Luglio 2021 10:20 tempo osservato: Sereno Sereno 25 61 1016 vento: Nord N 5.5
23 Luglio 2021 09:50 tempo osservato: Sereno Sereno 24 69 1016 vento: Nord N 5.5
23 Luglio 2021 09:20 tempo osservato: Sereno Sereno 23 73 1016 vento: Nord N 5.5
23 Luglio 2021 08:50 tempo osservato: Sereno Sereno 22 78 1016 vento: Nord N 3.7
23 Luglio 2021 08:20 tempo osservato: Sereno Sereno 21 82 1016 vento: Nord N 3.7
23 Luglio 2021 07:50 tempo osservato: Sereno Sereno 20 88 1016 vento: Nord N 3.7
23 Luglio 2021 07:20 tempo osservato: Sereno Sereno 20 88 1016 vento: Nord N 1.8
23 Luglio 2021 06:50 tempo osservato: Sereno Sereno 19 93 1016 vento: Nord N 3.7
23 Luglio 2021 06:20 tempo osservato: Sereno Sereno 18 100 1016 vento: Nord N 1.8
23 Luglio 2021 05:50 tempo osservato: Sereno Sereno 18 93 1015 vento: Nord N 3.7
23 Luglio 2021 05:20 tempo osservato: Sereno Sereno 19 93 1015 vento: Nord N 5.5
23 Luglio 2021 04:50 tempo osservato: Sereno Sereno 19 93 1015 vento: Nord N 3.7
23 Luglio 2021 04:20 tempo osservato: Sereno Sereno 19 93 1016 vento: Nord N 1.8
23 Luglio 2021 03:50 tempo osservato: Sereno Sereno 20 88 1016 vento: Nord N 3.7
23 Luglio 2021 03:20 tempo osservato: Sereno Sereno 19 93 1016 vento: Nord N 9.3
23 Luglio 2021 02:50 tempo osservato: Poco Nuvoloso Poco Nuvoloso 19 93 1016 vento: Nord N 9.3
23 Luglio 2021 02:20 tempo osservato: Poco Nuvoloso Poco Nuvoloso 19 93 1016 vento: Nord N 5.5
23 Luglio 2021 01:50 tempo osservato: Pioviggine Pioviggine 19 93 1017 vento: Nord N 5.5
23 Luglio 2021 01:20 tempo osservato: Temporale Temporale 20 82 1017 vento: Nord N/NO 22.2
23 Luglio 2021 00:50 tempo osservato: Temporale Temporale 21 77 1017 vento: Nord N 14.8
23 Luglio 2021 00:20 tempo osservato: Pioviggine Temporale nelle vicinanze Pioviggine Temporale nelle vicinanze 22 68 1017 vento: Nord N/NE 13
22 Luglio 2021 23:50 tempo osservato: Temporale nelle vicinanze Temporale nelle vicinanze 23 60 1017 vento: Nord NE 16.7
22 Luglio 2021 23:20 tempo osservato: Temporale nelle vicinanze Temporale nelle vicinanze 23 83 1017 vento: Nord N 5.5
22 Luglio 2021 22:50 tempo osservato: Pioggia Temporale nelle vicinanze Pioggia Temporale nelle vicinanze 24 73 1017 vento: Nord NE 9.3